Location: Chuathbaluk
(61.5726°N, 159.2454°W)
Time: 13:26:58
(UTC+00:00)

ZACube-1 - Pass Details

Date: 19 January 2021
Orbit: 583 x 666 km, 97.6° (Epoch: 01 March)

Event Time Altitude Azimuth Distance (km) Brightness Sun altitude
Rises 17:43:58 0° 15° (NNE) 3,021 ? -11.2°
Reaches altitude 10° 17:46:27 10° 4° (N) 2,107 ? -11.0°
Maximum altitude 17:50:19 27° 307° (NW) 1,278 ? -10.5°
Drops below altitude 10° 17:54:09 10° 250° (WSW) 2,093 ? -10.1°
Sets 17:56:37 0° 239° (WSW) 2,996 ? -9.9°
